STARLINK-1230 (45189 NORAD) Tracking and Keplerian Element Data

This shows tracking and keplerian element data for the satellite.

Feedback or suggestion? Click here.




ElementValue
Catalog45189
NameSTARLINK-1230
Epoch Orbit738
Epoch Day94.25001157
Epoch Year2020
RAAN52.1445
Inclination52.9992
Eccentricity0.0001732
Argument of Perigee64.6182
Mean Anonmoly108.5541
Mean Motion15.05561517
Decay Rate0.00020316
L11 45189U 20012M 20094.25001157 .00020316 00000-0 14102-2 0 9990
L22 45189 52.9992 52.1445 0001732 64.6182 108.5541 15.05561517 7384

Live tracking and technical data element details for STARLINK-1230 (NORAD 45189). STARLINK-1230 can be tracked NOW for your location showing map with azimuth and elevation plus other details from your city location.

Track the satellite on the map from your city or location and see movement details for azimuth, elevation, latitude, longitude, range, height, and movement on the map or in text.







IsCatalogInMostPopularTable: catalog: 45189, numindb: 6
Update: records affected: 1



GetName: 45189 STARLINK-1230

Hit Count: updated at: Mon, 06 Apr 2020 10:25:26 GMT